Location: Cluny
(50.9333°N, 112.8167°W)
Time: 01:57:09
(UTC-07:00)

Hamsat - Visible Passes

Search period start: 27 February 2017 00:00
Search period end: 09 March 2017 00:00
Orbit: 585 x 619 km, 97.6° (Epoch: 26 February)

Date Brightness Start Highest point End Pass type
(mag) Time Alt. Az. Time Alt. Az. Time Alt. Az.
27 Feb ? 04:27:21 10° NNE 04:31:18 41° E 04:32:10 36° SE visible
27 Feb ? 06:03:32 10° N 06:06:55 24° WNW 06:08:58 17° WSW visible
28 Feb ? 04:39:05 10° NNE 04:43:10 54° E 04:44:18 40° SSE visible
28 Feb ? 06:15:37 10° NNW 06:18:38 20° WNW 06:21:06 12° WSW visible
01 Mar ? 04:50:51 10° NNE 04:55:01 72° ESE 04:56:26 40° S visible
01 Mar ? 06:27:48 10° NNW 06:30:19 16° WNW 06:32:50 10° W visible
02 Mar ? 03:29:05 10° ENE 03:30:26 11° E 03:31:46 10° ESE visible
02 Mar ? 05:02:40 10° NNE 05:06:51 87° W 05:08:35 35° SSW visible
03 Mar ? 03:40:01 10° NE 03:42:25 15° E 03:43:54 13° ESE visible
03 Mar ? 05:14:31 10° N 05:18:39 67° WNW 05:20:43 28° SSW visible
04 Mar ? 03:51:21 10° NE 03:54:21 19° E 03:56:03 15° ESE visible
04 Mar ? 05:26:24 10° N 05:30:27 51° WNW 05:32:52 22° SW visible
05 Mar ? 04:02:51 10° NE 04:06:17 24° E 04:08:11 18° SE visible
05 Mar ? 05:38:19 10° N 05:42:12 39° WNW 05:45:00 17° SW visible
06 Mar ? 04:14:27 10° NNE 04:18:12 31° E 04:20:20 20° SE visible
06 Mar ? 05:50:17 10° N 05:53:58 31° WNW 05:57:08 13° SW visible
07 Mar ? 04:26:07 10° NNE 04:30:04 40° E 04:32:28 21° SSE visible
07 Mar ? 06:02:17 10° N 06:05:42 25° WNW 06:09:05 10° WSW visible
08 Mar ? 04:37:50 10° NNE 04:41:56 53° E 04:44:36 20° S visible
08 Mar ? 06:14:21 10° NNW 06:17:23 20° WNW 06:20:25 10° WSW visible
